CW4591 Weather Reports


Display with metric or nautical units.
time (UTC)temp
F
wind
direction
speed
MPH
gust
MPH
rain 1hr
in
rain 24hr
in
rain mn
in
humidity
%
barometer
mb
20260503031600 46 239 5.0 12.0 0.00 0.00 0.00 46 1013.0
20260503030108 45 227 7.0 15.0 0.00 0.00 0.00 47 1012.7
20260503024602 46 276 7.0 16.0 0.00 0.00 0.00 45 1012.6
20260503023058 47 312 8.0 17.0 0.00 0.00 0.00 43 1012.7
20260503021604 47 270 5.0 14.0 0.00 0.00 0.00 44 1012.7
20260503020106 46 359 8.0 21.0 0.00 0.00 0.00 46 1012.4
20260503014555 46 359 12.0 21.0 0.00 0.00 0.00 44 1012.4
20260503013056 47 226 10.0 19.0 0.00 0.00 0.00 44 1012.3
20260503011603 46 226 9.0 21.0 0.00 0.00 0.00 45 1012.1
20260503010055 47 359 12.0 22.0 0.00 0.00 0.00 42 1012.0
20260503004551 47 270 9.0 19.0 0.00 0.00 0.00 40 1011.9
20260503003055 48 262 7.0 15.0 0.00 0.00 0.00 37 1011.5
20260503001556 48 300 7.0 12.0 0.00 0.00 0.00 36 1011.5
20260503000038 48 191 6.0 22.0 0.00 0.00 0.00 36 1011.1
20260502234546 50 247 9.0 18.0 0.00 0.00 0.00 33 1011.0
20260502233035 51 251 8.0 21.0 0.00 0.00 0.00 34 1010.8
20260502231532 50 359 11.0 25.0 0.00 0.00 0.00 35 1010.8
20260502230030 50 219 9.0 23.0 0.00 0.00 0.00 36 1010.5
20260502224529 50 242 10.0 29.0 0.00 0.00 0.00 38 1010.4
20260502223029 50 212 9.0 23.0 0.00 0.00 0.00 36 1010.2
20260502221527 49 262 10.0 22.0 0.00 0.00 0.00 38 1010.5
20260502220032 49 239 11.0 25.0 0.00 0.00 0.00 40 1010.4
20260502214527 49 226 9.0 23.0 0.00 0.00 0.00 41 1010.5
20260502213033 49 286 9.0 16.0 0.00 0.00 0.00 42 1010.5
20260502211525 49 280 7.0 20.0 0.00 0.00 0.00 42 1010.6
20260502210024 49 166 8.0 17.0 0.00 0.00 0.00 41 1010.4
20260502204522 49 183 8.0 18.0 0.00 0.00 0.00 39 1010.1
20260502203020 49 359 4.0 13.0 0.00 0.00 0.00 40 1010.0
20260502201531 49 359 6.0 14.0 0.00 0.00 0.00 39 1009.8
20260502200018 50 251 10.0 19.0 0.00 0.00 0.00 38 1009.6
20260502194532 50 268 8.0 19.0 0.00 0.00 0.00 39 1009.3
20260502193015 50 268 7.0 16.0 0.00 0.00 0.00 39 1009.0
20260502191511 49 265 6.0 12.0 0.00 0.00 0.00 39 1008.7
20260502190010 49 218 7.0 15.0 0.00 0.00 0.00 39 1008.4
20260502184515 49 359 8.0 17.0 0.00 0.00 0.00 41 1008.3
20260502183010 49 231 9.0 21.0 0.00 0.00 0.00 40 1008.2
20260502181504 48 265 6.0 15.0 0.00 0.00 0.00 40 1008.1
20260502163104 44 237 9.0 17.0 0.00 0.00 0.00 51 1007.1
20260502161542 43 231 7.0 16.0 0.00 0.00 0.00 53 1006.6
20260502151538 41 211 5.0 13.0 0.00 0.00 0.00 60 1005.9
20260502123007 36 152 0.0 5.0 0.00 0.00 0.00 74 1002.2
20260502121505 37 152 0.0 5.0 0.00 0.00 0.00 72 1001.9
20260502114502 39 247 2.0 16.0 0.00 0.00 0.00 67 1001.1
20260502113059 36 359 6.0 12.0 0.00 0.00 0.00 77 1000.6
20260502111551 37 182 3.0 10.0 0.00 0.00 0.00 78 1000.6
20260502103043 40 168 2.0 8.0 0.00 0.00 0.00 71 1000.1
20260502101539 41 222 4.0 10.0 0.00 0.00 0.00 69 1000.2
20260502091528 43 273 3.0 8.0 0.00 0.00 0.00 60 998.6
20260502071511 42 149 5.0 12.0 0.00 0.00 0.00 57 997.7
20260502070010 42 164 5.0 12.0 0.00 0.00 0.00 58 997.8
20260502064514 41 189 3.0 8.0 0.00 0.00 0.00 60 997.9
20260502063007 41 151 4.0 9.0 0.00 0.00 0.00 59 998.1
20260502061505 42 146 2.0 11.0 0.00 0.00 0.00 57 998.1
20260502060007 42 166 3.0 11.0 0.00 0.00 0.00 57 998.2
20260502054503 41 110 2.0 9.0 0.00 0.00 0.00 56 998.2
20260502053001 42 139 1.0 5.0 0.00 0.00 0.00 55 998.4
20260502051500 43 149 1.0 4.0 0.00 0.00 0.00 54 998.6
20260502050100 43 123 2.0 5.0 0.00 0.00 0.00 53 998.6
20260502044558 44 110 2.0 8.0 0.00 0.00 0.00 51 998.7
20260502043105 44 122 2.0 5.0 0.00 0.00 0.00 50 999.1
20260502041555 44 115 1.0 5.0 0.00 0.00 0.00 49 999.1
20260502040053 44 145 1.0 8.0 0.00 0.00 0.00 50 999.4
20260502034552 44 153 4.0 13.0 0.00 0.00 0.00 49 999.5
20260502033048 45 140 3.0 11.0 0.00 0.00 0.00 48 999.9